Year,Month,Day,Hour,Minute,Value (Times are PST for temperature in C)
2012,07,19,11,12,19.80
2012,07,19,11,13,19.90
2012,07,19,11,14,19.90
2012,07,19,11,15,19.90
2012,07,19,11,16,19.90
2012,07,19,11,17,19.90
2012,07,19,11,18,19.90
2012,07,19,11,19,19.90
2012,07,19,11,20,19.90
2012,07,19,11,21,20.00
2012,07,19,11,22,20.00
2012,07,19,11,23,20.10
2012,07,19,11,24,20.20
2012,07,19,11,25,20.30
2012,07,19,11,26,20.40
2012,07,19,11,27,20.60
2012,07,19,11,28,20.70
2012,07,19,11,29,20.80
2012,07,19,11,30,20.90
2012,07,19,11,31,20.90
2012,07,19,11,32,21.00
2012,07,19,11,33,21.00
2012,07,19,11,34,21.00
2012,07,19,11,35,20.90
2012,07,19,11,36,20.90
2012,07,19,11,37,20.90
2012,07,19,11,38,21.00
2012,07,19,11,39,21.00
2012,07,19,11,40,21.10
2012,07,19,11,41,21.10
2012,07,19,11,42,21.10
2012,07,19,11,43,21.20
2012,07,19,11,44,21.20
2012,07,19,11,45,21.20
2012,07,19,11,46,21.20
2012,07,19,11,47,21.20
2012,07,19,11,48,21.20
2012,07,19,11,49,21.20
2012,07,19,11,50,21.20
2012,07,19,11,51,21.20
2012,07,19,11,52,21.20
2012,07,19,11,53,21.30
2012,07,19,11,54,21.30
2012,07,19,11,55,21.30
2012,07,19,11,56,21.40
2012,07,19,11,57,21.50
2012,07,19,11,58,21.60
2012,07,19,11,59,21.60
2012,07,19,12,00,21.60
2012,07,19,12,01,21.50
2012,07,19,12,02,21.50
2012,07,19,12,03,21.50
2012,07,19,12,04,21.40
2012,07,19,12,05,21.30
2012,07,19,12,06,21.30
2012,07,19,12,07,21.30
2012,07,19,12,08,21.30
2012,07,19,12,09,21.30
2012,07,19,12,10,21.40
2012,07,19,12,11,21.40
2012,07,19,12,12,21.40
2012,07,19,12,13,21.40
2012,07,19,12,14,21.40
2012,07,19,12,15,21.40
2012,07,19,12,16,21.40
2012,07,19,12,17,21.50
2012,07,19,12,18,21.60
2012,07,19,12,19,21.70
2012,07,19,12,20,21.70
2012,07,19,12,21,21.70
2012,07,19,12,22,21.70
2012,07,19,12,23,21.70
2012,07,19,12,24,21.70
2012,07,19,12,25,21.70
2012,07,19,12,26,21.70
2012,07,19,12,27,21.80
2012,07,19,12,28,21.80
2012,07,19,12,29,21.80
2012,07,19,12,30,21.90
2012,07,19,12,31,22.00
2012,07,19,12,32,22.00
2012,07,19,12,33,22.00
2012,07,19,12,34,22.00
2012,07,19,12,35,22.00
2012,07,19,12,36,21.90
2012,07,19,12,37,21.90
2012,07,19,12,38,21.90
2012,07,19,12,39,21.80
2012,07,19,12,40,21.90
2012,07,19,12,41,22.00
2012,07,19,12,42,22.10
2012,07,19,12,43,22.20
2012,07,19,12,44,22.30
2012,07,19,12,45,22.40
2012,07,19,12,46,22.40
2012,07,19,12,47,22.50
2012,07,19,12,48,22.50
2012,07,19,12,49,22.60
2012,07,19,12,50,22.70
2012,07,19,12,51,22.80
2012,07,19,12,52,22.80
2012,07,19,12,53,22.90
2012,07,19,12,54,22.90
2012,07,19,12,55,22.90
2012,07,19,12,56,22.90
2012,07,19,12,57,22.80
2012,07,19,12,58,22.70
2012,07,19,12,59,22.70
2012,07,19,13,00,22.80
2012,07,19,13,01,22.80
2012,07,19,13,02,22.90
2012,07,19,13,03,22.90
2012,07,19,13,04,22.90
2012,07,19,13,05,22.90
2012,07,19,13,06,22.90
2012,07,19,13,07,22.90
2012,07,19,13,08,23.00
2012,07,19,13,09,23.10
2012,07,19,13,10,23.10
2012,07,19,13,11,23.10
2012,07,19,13,12,23.20
2012,07,19,13,13,23.20
2012,07,19,13,14,23.20
2012,07,19,13,15,23.20
2012,07,19,13,16,23.20
2012,07,19,13,17,23.10
2012,07,19,13,18,23.10
2012,07,19,13,19,23.00
2012,07,19,13,20,23.00
2012,07,19,13,21,23.10
2012,07,19,13,22,23.10
2012,07,19,13,23,23.10
2012,07,19,13,24,23.20
2012,07,19,13,25,23.10
2012,07,19,13,26,23.10
2012,07,19,13,27,23.10
2012,07,19,13,28,23.10
2012,07,19,13,29,23.20
2012,07,19,13,30,23.20
2012,07,19,13,31,23.30
2012,07,19,13,32,23.30
2012,07,19,13,33,23.30
2012,07,19,13,34,23.30
2012,07,19,13,35,23.40
2012,07,19,13,36,23.40
2012,07,19,13,37,23.40
2012,07,19,13,38,23.30
2012,07,19,13,39,23.30
2012,07,19,13,40,23.30
2012,07,19,13,41,23.20
2012,07,19,13,42,23.20
2012,07,19,13,43,23.20
2012,07,19,13,44,23.30
2012,07,19,13,45,23.30
2012,07,19,13,46,23.40
2012,07,19,13,47,23.40
2012,07,19,13,48,23.40
2012,07,19,13,49,23.50
2012,07,19,13,50,23.50
2012,07,19,13,51,23.50
2012,07,19,13,52,23.50
2012,07,19,13,53,23.50
2012,07,19,13,54,23.50
2012,07,19,13,55,23.60
2012,07,19,13,56,23.70
2012,07,19,13,57,23.80
2012,07,19,13,58,23.80
2012,07,19,13,59,23.90
2012,07,19,14,00,23.90
2012,07,19,14,01,23.90
2012,07,19,14,02,23.90
2012,07,19,14,03,23.80
2012,07,19,14,04,23.80
2012,07,19,14,05,23.80
2012,07,19,14,06,23.80
2012,07,19,14,07,23.80
2012,07,19,14,08,23.80
2012,07,19,14,09,23.80
2012,07,19,14,10,23.90
2012,07,19,14,11,23.90
2012,07,19,14,12,24.00
2012,07,19,14,13,24.10
2012,07,19,14,14,24.00
2012,07,19,14,15,24.00
2012,07,19,14,16,24.10
2012,07,19,14,17,24.00
2012,07,19,14,18,24.00
2012,07,19,14,19,24.00
2012,07,19,14,20,24.00
2012,07,19,14,21,24.10
2012,07,19,14,22,24.10
2012,07,19,14,23,24.10
2012,07,19,14,24,24.10
2012,07,19,14,25,24.10
2012,07,19,14,26,24.00
2012,07,19,14,27,23.90
2012,07,19,14,28,23.90
2012,07,19,14,29,23.80
2012,07,19,14,30,23.80
2012,07,19,14,31,23.80
2012,07,19,14,32,23.80
2012,07,19,14,33,23.70
2012,07,19,14,34,23.70
2012,07,19,14,35,23.70
2012,07,19,14,36,23.70
2012,07,19,14,37,23.80
2012,07,19,14,38,23.80
2012,07,19,14,39,23.90
2012,07,19,14,40,23.90
2012,07,19,14,41,24.00
2012,07,19,14,42,24.10
2012,07,19,14,43,24.20
2012,07,19,14,44,24.30
2012,07,19,14,45,24.30
2012,07,19,14,46,24.30
2012,07,19,14,47,24.30
2012,07,19,14,48,24.30
2012,07,19,14,49,24.40
2012,07,19,14,50,24.40
2012,07,19,14,51,24.40
2012,07,19,14,52,24.40
2012,07,19,14,53,24.50
2012,07,19,14,54,24.60
2012,07,19,14,55,24.60
2012,07,19,14,56,24.60
2012,07,19,14,57,24.50
2012,07,19,14,58,24.40
2012,07,19,14,59,24.40
2012,07,19,15,00,24.50
2012,07,19,15,01,24.50
2012,07,19,15,02,24.40
2012,07,19,15,03,24.50
2012,07,19,15,04,24.50
2012,07,19,15,05,24.40
2012,07,19,15,06,24.50
2012,07,19,15,07,24.50
2012,07,19,15,08,24.50
2012,07,19,15,09,24.50
2012,07,19,15,10,24.40
2012,07,19,15,11,24.30
2012,07,19,15,12,24.30
2012,07,19,15,13,24.30
2012,07,19,15,14,24.30
2012,07,19,15,15,24.30
2012,07,19,15,16,24.30
2012,07,19,15,17,24.30
2012,07,19,15,18,24.40
2012,07,19,15,19,24.40
2012,07,19,15,20,24.50
2012,07,19,15,21,24.60
2012,07,19,15,22,24.60
2012,07,19,15,23,24.60
2012,07,19,15,24,24.70
2012,07,19,15,25,24.70
2012,07,19,15,26,24.80
2012,07,19,15,27,24.80
2012,07,19,15,28,24.90
2012,07,19,15,29,24.90
2012,07,19,15,30,24.90
2012,07,19,15,31,24.80
2012,07,19,15,32,24.80
2012,07,19,15,33,24.80
2012,07,19,15,34,24.80
2012,07,19,15,35,24.80
2012,07,19,15,36,24.80
2012,07,19,15,37,24.80
2012,07,19,15,38,24.90
2012,07,19,15,39,24.90
2012,07,19,15,40,24.90
2012,07,19,15,41,25.00
2012,07,19,15,42,25.00
2012,07,19,15,43,24.90
2012,07,19,15,44,24.70
2012,07,19,15,45,24.60
2012,07,19,15,46,24.40
2012,07,19,15,47,24.30
2012,07,19,15,48,24.20
2012,07,19,15,49,24.10
2012,07,19,15,50,24.10
2012,07,19,15,51,24.10
2012,07,19,15,52,24.10
2012,07,19,15,53,24.10
2012,07,19,15,54,24.10
2012,07,19,15,55,24.10
2012,07,19,15,56,24.10
2012,07,19,15,57,24.10
2012,07,19,15,58,24.10
2012,07,19,15,59,24.10
2012,07,19,16,00,24.10
2012,07,19,16,01,24.10
2012,07,19,16,02,24.00
2012,07,19,16,03,24.00
2012,07,19,16,04,24.00
2012,07,19,16,05,24.00
2012,07,19,16,06,24.10
2012,07,19,16,07,24.10
2012,07,19,16,08,24.10
2012,07,19,16,09,24.10
2012,07,19,16,10,24.20
2012,07,19,16,11,24.30
2012,07,19,16,12,24.30
2012,07,19,16,13,24.30
2012,07,19,16,14,24.30
2012,07,19,16,15,24.30
2012,07,19,16,16,24.30
2012,07,19,16,17,24.30
2012,07,19,16,18,24.20
2012,07,19,16,19,24.20
2012,07,19,16,20,24.20
2012,07,19,16,21,24.20
2012,07,19,16,22,24.20
2012,07,19,16,23,24.10
2012,07,19,16,24,24.10
2012,07,19,16,25,24.10
2012,07,19,16,26,24.10
2012,07,19,16,27,24.10
2012,07,19,16,28,24.10
2012,07,19,16,29,24.10
2012,07,19,16,30,24.10
2012,07,19,16,31,24.20
2012,07,19,16,32,24.20
2012,07,19,16,33,24.20
2012,07,19,16,34,24.20
2012,07,19,16,35,24.20
2012,07,19,16,36,24.20
2012,07,19,16,37,24.20
2012,07,19,16,38,24.20
2012,07,19,16,39,24.20
2012,07,19,16,40,24.10
2012,07,19,16,41,24.10
2012,07,19,16,42,24.10
2012,07,19,16,43,24.10
2012,07,19,16,44,24.10
2012,07,19,16,45,24.10
2012,07,19,16,46,24.10
2012,07,19,16,47,24.10
2012,07,19,16,48,24.20
2012,07,19,16,49,24.20
2012,07,19,16,50,24.30
2012,07,19,16,51,24.30
2012,07,19,16,52,24.40
2012,07,19,16,53,24.50
2012,07,19,16,54,24.60
2012,07,19,16,55,24.70
2012,07,19,16,56,24.80
2012,07,19,16,57,24.90
2012,07,19,16,58,25.00
2012,07,19,16,59,25.00
2012,07,19,17,00,25.10
2012,07,19,17,01,25.10
2012,07,19,17,02,25.10
2012,07,19,17,03,25.00
2012,07,19,17,04,25.00
2012,07,19,17,05,25.10
2012,07,19,17,06,25.10
2012,07,19,17,07,25.10
2012,07,19,17,08,25.20
2012,07,19,17,09,25.20
2012,07,19,17,10,25.30
2012,07,19,17,11,25.30
2012,07,19,17,12,25.20
2012,07,19,17,13,25.20
2012,07,19,17,14,25.20
2012,07,19,17,15,25.20
2012,07,19,17,16,25.20
2012,07,19,17,17,25.30
2012,07,19,17,18,25.30
2012,07,19,17,19,25.30
2012,07,19,17,20,25.30
2012,07,19,17,21,25.30
2012,07,19,17,22,25.30
2012,07,19,17,23,25.30
2012,07,19,17,24,25.30
2012,07,19,17,25,25.20
2012,07,19,17,26,25.10
2012,07,19,17,27,25.00
2012,07,19,17,28,24.90
2012,07,19,17,29,24.90
2012,07,19,17,30,24.90
2012,07,19,17,31,24.90
2012,07,19,17,32,24.80
2012,07,19,17,33,24.80
2012,07,19,17,34,24.80
2012,07,19,17,35,24.80
2012,07,19,17,36,24.80
2012,07,19,17,37,24.80
2012,07,19,17,38,24.80
2012,07,19,17,39,24.90
2012,07,19,17,40,24.90
2012,07,19,17,41,24.90
2012,07,19,17,42,24.80
2012,07,19,17,43,24.80
2012,07,19,17,44,24.80
2012,07,19,17,45,24.80
2012,07,19,17,46,24.70
2012,07,19,17,47,24.70
2012,07,19,17,48,24.70
2012,07,19,17,49,24.70
2012,07,19,17,50,24.70
2012,07,19,17,51,24.60
2012,07,19,17,52,24.60
2012,07,19,17,53,24.60
2012,07,19,17,54,24.60
2012,07,19,17,55,24.60
2012,07,19,17,56,24.60
2012,07,19,17,57,24.60
2012,07,19,17,58,24.50
2012,07,19,17,59,24.50
2012,07,19,18,00,24.50
2012,07,19,18,01,24.50
2012,07,19,18,02,24.50
2012,07,19,18,03,24.50
2012,07,19,18,04,24.50
2012,07,19,18,05,24.50
2012,07,19,18,06,24.50
2012,07,19,18,07,24.50
2012,07,19,18,08,24.50
2012,07,19,18,09,24.50
2012,07,19,18,10,24.50
2012,07,19,18,11,24.40
2012,07,19,18,12,24.40
2012,07,19,18,13,24.40
2012,07,19,18,14,24.40
2012,07,19,18,15,24.50
2012,07,19,18,16,24.50
2012,07,19,18,17,24.50
2012,07,19,18,18,24.50
2012,07,19,18,19,24.50
2012,07,19,18,20,24.60
2012,07,19,18,21,24.60
2012,07,19,18,22,24.60
2012,07,19,18,23,24.60
2012,07,19,18,24,24.60
2012,07,19,18,25,24.60
2012,07,19,18,26,24.60
2012,07,19,18,27,24.60
2012,07,19,18,28,24.60
2012,07,19,18,29,24.60
2012,07,19,18,30,24.60
2012,07,19,18,31,24.50
2012,07,19,18,32,24.50
2012,07,19,18,33,24.50
2012,07,19,18,34,24.40
2012,07,19,18,35,24.40
2012,07,19,18,36,24.40
2012,07,19,18,37,24.40
2012,07,19,18,38,24.40
2012,07,19,18,39,24.40
2012,07,19,18,40,24.40
2012,07,19,18,41,24.40
2012,07,19,18,42,24.40
2012,07,19,18,43,24.30
2012,07,19,18,44,24.30
2012,07,19,18,45,24.30
2012,07,19,18,46,24.30
2012,07,19,18,47,24.30
2012,07,19,18,48,24.30
2012,07,19,18,49,24.30
2012,07,19,18,50,24.20
2012,07,19,18,51,24.20
2012,07,19,18,52,24.20
2012,07,19,18,53,24.20
2012,07,19,18,54,24.10
2012,07,19,18,55,24.10
2012,07,19,18,56,24.10
2012,07,19,18,57,24.10
2012,07,19,18,58,24.00
2012,07,19,18,59,24.00
2012,07,19,19,00,23.90
2012,07,19,19,01,23.90
2012,07,19,19,02,23.90
2012,07,19,19,03,23.80
2012,07,19,19,04,23.80
2012,07,19,19,05,23.80
2012,07,19,19,06,23.70
2012,07,19,19,07,23.70
2012,07,19,19,08,23.70
2012,07,19,19,09,23.60
2012,07,19,19,10,23.50
2012,07,19,19,11,23.50
2012,07,19,19,12,23.40
2012,07,19,19,13,23.40
2012,07,19,19,14,23.30
2012,07,19,19,15,23.20
2012,07,19,19,16,23.20
2012,07,19,19,17,23.10
2012,07,19,19,18,23.00
2012,07,19,19,19,23.00
2012,07,19,19,20,22.90
2012,07,19,19,21,22.90
2012,07,19,19,22,22.80
2012,07,19,19,23,22.80
2012,07,19,19,24,22.80
2012,07,19,19,25,22.80
2012,07,19,19,26,22.80
2012,07,19,19,27,22.80
2012,07,19,19,28,22.70
2012,07,19,19,29,22.70
2012,07,19,19,30,22.70
2012,07,19,19,31,22.70
2012,07,19,19,32,22.70
2012,07,19,19,33,22.60
2012,07,19,19,34,22.60
2012,07,19,19,35,22.60
2012,07,19,19,36,22.50
2012,07,19,19,37,22.40
2012,07,19,19,38,22.40
2012,07,19,19,39,22.40
2012,07,19,19,40,22.40
2012,07,19,19,41,22.40
2012,07,19,19,42,22.40
2012,07,19,19,43,22.40
2012,07,19,19,44,22.40
2012,07,19,19,45,22.40
2012,07,19,19,46,22.40
2012,07,19,19,47,22.50
2012,07,19,19,48,22.50
2012,07,19,19,49,22.60
2012,07,19,19,50,22.60
2012,07,19,19,51,22.70
2012,07,19,19,52,22.80
2012,07,19,19,53,22.80
2012,07,19,19,54,22.90
2012,07,19,19,55,23.00
2012,07,19,19,56,23.00
2012,07,19,19,57,23.10
2012,07,19,19,58,23.20
2012,07,19,19,59,23.30
2012,07,19,20,00,23.40
2012,07,19,20,01,23.50
2012,07,19,20,02,23.60
2012,07,19,20,03,23.60
2012,07,19,20,04,23.70
2012,07,19,20,05,23.70
2012,07,19,20,06,23.70
2012,07,19,20,07,23.60
2012,07,19,20,08,23.60
2012,07,19,20,09,23.60
2012,07,19,20,10,23.50
2012,07,19,20,11,23.50
2012,07,19,20,12,23.50
2012,07,19,20,13,23.40
2012,07,19,20,14,23.40
2012,07,19,20,15,23.40
2012,07,19,20,16,23.40
2012,07,19,20,17,23.40
2012,07,19,20,18,23.30
2012,07,19,20,19,23.30
2012,07,19,20,20,23.30
2012,07,19,20,21,23.20
2012,07,19,20,22,23.20
2012,07,19,20,23,23.20
2012,07,19,20,24,23.10
2012,07,19,20,25,23.10
2012,07,19,20,26,23.00
2012,07,19,20,27,23.00
2012,07,19,20,28,22.90
2012,07,19,20,29,22.90
2012,07,19,20,30,22.80
2012,07,19,20,31,22.80
2012,07,19,20,32,22.80
2012,07,19,20,33,22.80
2012,07,19,20,34,22.70
2012,07,19,20,35,22.70
2012,07,19,20,36,22.70
2012,07,19,20,37,22.70
2012,07,19,20,38,22.70
2012,07,19,20,39,22.70
2012,07,19,20,40,22.60
2012,07,19,20,41,22.60
2012,07,19,20,42,22.60
2012,07,19,20,43,22.50
2012,07,19,20,44,22.50
2012,07,19,20,45,22.40
2012,07,19,20,46,22.40
2012,07,19,20,47,22.40
2012,07,19,20,48,22.30
2012,07,19,20,49,22.30
2012,07,19,20,50,22.20
2012,07,19,20,51,22.10
2012,07,19,20,52,22.10
2012,07,19,20,53,22.00
2012,07,19,20,54,21.90
2012,07,19,20,55,21.80
2012,07,19,20,56,21.80
2012,07,19,20,57,21.80
2012,07,19,20,58,21.70
2012,07,19,20,59,21.70
2012,07,19,21,00,21.60
2012,07,19,21,01,21.60
2012,07,19,21,02,21.50
2012,07,19,21,03,21.50
2012,07,19,21,04,21.50
2012,07,19,21,05,21.50
2012,07,19,21,06,21.50
2012,07,19,21,07,21.50
2012,07,19,21,08,21.50
2012,07,19,21,09,21.50
2012,07,19,21,10,21.50
2012,07,19,21,11,21.50
2012,07,19,21,12,21.50
